Showing default

O3B FM14, 43233

Orbit data source: Space-Track

O3B FM14, 43233 is a payload satellite owned by O3B SES (JE) that was launched on Fri, 09 Mar 2018 UTC via a SOYUZ-ST-B launch vehicle from the French Guiana (FRGUI). Payload-class satellites include a variety of spacecraft equipped with specific instruments for various scientific and technological missions. These include communications satellites like Starlink; space stations such as the ISS; scientific satellites like the Hubble; Earth observation satellites from companies like Planet Labs, Umbra, and HawkEye 360; GPS; miniature CubeSats for education and research; and military/defense satellites.

Loading next visibility...
Identifier
43233, 2018-024C
Orbit
Active
Last TLE update
19 hours ago
Origin
Manufacturer
Thales Alenia
Mission
Operational Commercial Communications
Bus & Motor
PRISMA?, LS-400 AOCS?
Mass
700 kg wet, ~500 kg dry
Launch date (UTC)
2018-03-09 (7 years ago)
Launch vehicle
SOYUZ-ST-B
Launch site
French Guiana (FRGUI)
Object type
Payload
Rocket body
Debris
Shape & HBR
Trap Box + 2 Pan, 12 m
Radar Cross Section
21.980 m², Large (>1 m²)

Expand to show TLE details & history

TLE from 19 hours ago
0 O3B FM14
1 43233U 18024C   25181.57841691 -.00000025  00000-0  00000-0 0  9996
2 43233   0.0544 350.2633 0002789 108.4079 261.3576  5.00115382133368
Epoch: 2025-06-30T13:52Z
TLE epoch observation values (Epoch: 2025-06-30T13:52:55.221Z)
Latitude
0.00789°
Longitude
-127.11626°
Altitude
8,064.979 km
Speed
5.254 km/s
True Right ascension
00h 00m 00s
True Declination
0° 00' 28"
Sunlit
Object was in daylight at epoch
Visualization orbit readout
Latitude
0.01577°
Longitude
-119.71603°
Altitude
8,064.492 km
Speed
5.254 km/s
Apparent Right ascension
01h 45m 51s
Apparent Declination
-18° 15' 20"
Sunlit
Object is in daylight
Visualization observer readout
Local Sidereal Time
20:48:26
Azimuth
113.868° SE
Elevation
-0.26°
Doppler factor
1
Orbital elements
Apogee altitude
8,072.98 km
Perigee altitude
8,064.922 km
Semi-major axis
14,447.088 km
Eccentricity
0.00028
Inclination
0.0544°
RAAN
350.2633°
Arg. of periapsis
108.4079°
True anomaly
Unknown
Mean anomaly
261.3576°
Eccentric anomaly
Unknown
Mean motion
1.24989 °/min
Orbital period
288.02 mins
BSTAR
0
Loading maneuver chart data...
Loading SW <> Apogee altitude chart data...
Loading historical data...
Loading historical data...
Loading historical data...
Loading historical data...
Loading historical data...
Loading historical data...
Loading historical data...
Other satellites on launch #24 in the year 2018 (2018-03-09 UTC)

O3B FM14 Visibility forecast

Observer location: undefined°, undefined°

Span
Click to sort rows by Start time (UTC) header in descending order
Start Az.
Max El. time (UTC)
Max El. Az.
Max El.
End time (UTC)
End Az.
79 mins2025-07-01 13:35:12.476Z232.339° WSW2025-07-01 14:15:12.476Z179.548° S24.4°2025-07-01 14:54:12.476Z128.003° SE
78 mins2025-07-01 19:36:12.476Z231.387° WSW2025-07-01 20:15:12.476Z179.484° S24.406°2025-07-01 20:54:12.476Z128.003° SE
78 mins2025-07-02 01:36:12.476Z231.309° WSW2025-07-02 02:15:12.476Z179.455° S24.337°2025-07-02 02:54:12.476Z128.067° SE
78 mins2025-07-02 07:36:12.476Z231.272° WSW2025-07-02 08:15:12.476Z179.52° S24.333°2025-07-02 08:54:12.476Z128.067° SE
|